Location: *
(40.9945°S, 99.5838°E)
Time: 00:39:09
(UTC+00:00)

Daily predictions for brighter satellites

Satellite Brightness Start Highest point End
(mag) Time Altitude Azimuth Time Altitude Azimuth Time Altitude Azimuth
Meteor 1-15 Rocket 4.2 11:33:58 10° S 11:39:37 69° E 11:45:15 10° NNE
OAO 2 Rocket 4.4 11:34:47 10° WNW 11:39:48 41° N 11:44:48 10° ENE
Nadezhda 1 Rocket 4.3 11:36:01 10° S 11:42:20 75° W 11:48:28 10° N
Cosmos 1975 Rocket 3.1 11:39:02 10° N 11:43:22 63° E 11:47:45 10° SSE
AQUARIUS 4.2 11:39:30 10° SSE 11:44:05 74° ENE 11:48:37 10° N
Cosmos 2360 Rocket 3.9 11:42:53 10° ENE 11:44:19 11° E 11:45:46 10° E
ATLAS CENTAUR R/B 2.7 11:42:22 10° SW 11:46:23 45° WNW 11:50:40 10° N
IRS-1C Rocket 4.4 11:41:27 10° S 11:46:49 78° WSW 11:52:05 10° NNW
Envisat 3.6 11:43:37 10° SSE 11:48:19 34° E 11:52:57 10° NNE
Cosmos 1980 Rocket 2.5 11:43:06 10° NNW 11:48:49 79° WSW 11:54:36 10° SSE
Shenzhou-11 Module 2.1 11:46:16 10° W 11:49:05 61° S 11:51:54 10° ESE
Cosmos 1048 Rocket 4.1 11:43:47 10° N 11:49:07 70° ENE 11:54:33 10° SSE
Okean 2 3.8 11:47:10 10° NNE 11:51:08 42° E 11:55:10 10° SSE
Cosmos 1607 4.2 11:46:42 10° SSW 11:52:58 52° SE 11:59:08 10° NE
Unknown 4.1 11:50:05 10° WSW 11:52:59 39° NW 11:55:53 10° NNE
Okean O Rocket 4.4 11:50:25 10° SSW 11:53:50 22° WSW 11:57:13 10° WNW
YAOGAN 1 3.7 11:51:04 10° SE 11:54:33 22° E 11:57:57 10° NE
YAOGAN 6 3.6 11:53:40 10° SE 11:56:40 24° E 11:59:40 10° NNE
